Regional Weather Roundup
Issued by NWS Newport/Morehead, NC

Home | Current Version | Previous Version | Text Only | Print | Product List | Glossary On
Versions: 1 2 3 4 5 6 7 8 9 10 11 12 13 14 15 16 17 18 19 20 21 22 23 24 25 26 27 28 29 30 31 32 33 34 35 36 37 38 39 40 41 42 43 44 45 46 47 48 49 50
000
ASUS42 KMHX 300310
RWRMHX
WEATHER ROUNDUP FOR EASTERN NORTH CAROLINA
NATIONAL WEATHER SERVICE NEWPORT/MOREHEAD CITY NC
1100 PM EDT FRI AUG 29 2014

NOTE: "FAIR" INDICATES FEW OR NO CLOUDS BELOW 12,000 FEET
WITH NO SIGNIFICANT WEATHER AND/OR OBSTRUCTIONS TO VISIBILITY

NCZ015>017-031-032-045>047-102-103-300400-
NORTH COAST

CITY           SKY/WX    TMP DP  RH WIND       PRES   REMARKS
EDENTON        CLOUDY    75  67  78 E5        30.18S
ELIZABETH CITY CLOUDY    74  65  73 E6        30.19S
KITTY HAWK     CLOUDY    75  65  70 E7        30.18R
MANTEO         CLOUDY    75  65  72 E9        30.19R

$$

NCZ045>047-081-094-103-104-300400-
CENTRAL COAST

CITY           SKY/WX    TMP DP  RH WIND       PRES   REMARKS
FRISCO         LGT RAIN  77  74  90 E9        30.16S
SWANQUARTER      N/A     73 N/A N/A NE6       30.12S

$$

NCZ095-097-098-100-101-300400-
SOUTHERN COAST

CITY           SKY/WX    TMP DP  RH WIND       PRES   REMARKS
BEAUFORT       CLEAR     77  74  90 CALM      30.16R
CEDAR ISLAND     N/A     77 N/A N/A E3        30.18S
JACKSONVILLE   PTCLDY    78  74  87 E7        30.15S
NEWPORT        NOT AVBL
PINEY ISLAND   CLEAR     80  77  90 CALM      30.16R
WILMINGTON     CLEAR     75  71  87 CALM      30.15R


$$

NCZ011>013-027>030-043-044-078>080-089-090>093-098-300400-
COASTAL PLAIN

CITY           SKY/WX    TMP DP  RH WIND       PRES   REMARKS
AHOSKIE        PTCLDY    71  65  83 CALM      30.19S
CLINTON        PTCLDY    77  73  88 CALM      30.17R
ELIZABETHTOWN  CLEAR     75  69  80 CALM      30.16R
GOLDSBORO      CLEAR     75  74  98 E6        30.15R
GREENVILLE     CLEAR     72  68  88 NE3       30.19S
HAVELOCK       PTCLDY    76  73  91 CALM      30.17R
KENANSVILLE    MOCLDY    75  73  91 CALM      30.18R
KINSTON        CLEAR     76  73  90 E3        30.17S
NEW BERN       PTCLDY    77  71  82 NE6       30.18R
RICHLANDS      PTCLDY    75  72  88 NE5       30.17R
ROANOKE RAPIDS NOT AVBL
ROCKY MOUNT    CLOUDY    74  68  81 VRB6      30.18R
WASHINGTON     MOCLDY    72  68  86 CALM      30.18S
WHITEVILLE     CLEAR     75  71  89 CALM      30.15R

$$

AMZ130-135-150-152-154-156-158-170-250-252-270-ANZ085-086-088-633-658-670-300400-
MARINE OBSERVATIONS

STATION/POSITION TIME  TEMP    WIND        PRES    WAVE   SWELL
                       AIR SEA DIR/SP/G            HT/PER HT/PER
                 (UTC) (F)     (DEG/KT/KT) (MB)    (FT/S) (FT/S)
CHESAPEAKE LIGHT 0200   74     100/ 11/ 12 1023.2
BUOY 44014       0300   75 76  100/  8/ 10 1022.1    3/ 8   2/ 8
DUCK             0300   76 78   80/ 12/ 13 1021.7
2E DUCK          0300                        N/A     3/ 8
OREGON INLET     0300   76 79   60/  9/ 13 1021.8
BUOY 44095       0300      77                N/A     3/ 8
20E OREGON INLET NOT AVBL
HATTERAS CG      0300      82  110/  7/ 11 1021.7
DIAMOND BUOY     0300   79      50/  6/  8 1021.1    4/ 8   3/ 8
CAPE LOOKOUT     0200   80      70/  3/  3 1020.8
BEAUFORT LAB     0300      82   50/  2/  3 1020.6
30 SE NEW RIVER  0300   82 82  180/  8/  8 1021.3    2/ 8   2/ 8
5 SE WRIGHTSVILL 0300   78 81  170/  8/ 10   N/A
BUOY 41002       0224   81 83  120/  8/ 10 1021.4    3/ 8   3/ 8
BUOY 41004       0300   83 83  160/  8/ 10 1019.7    3/ 8   2/ 8

$$



USA.gov is the U.S. government's official web portal to all federal, state and local government web resources and services.